Regional Weather Roundup
Issued by NWS

Home | Current Version | Previous Version | Text Only | Print | Product List | Glossary Off
Versions: 1 2 3 4 5 6 7 8 9 10 11 12 13 14 15 16 17 18 19 20 21 22 23 24 25 26 27 28 29 30 31 32 33 34 35 36 37 38 39 40 41 42 43 44 45 46 47 48 49 50

000
ASUS44 KMEG 280810
RWRTN
TENNESSEE HOURLY STATE WEATHER ROUNDUP
NATIONAL WEATHER SERVICE MEMPHIS TN
300 AM CDT WED SEP 28 2016

TNZ002-004-019-021-049-052-054-088>092-280900-
WEST TENNESSEE

CITY           SKY/WX    TMP DP  RH WIND       PRES   REMARKS
MEMPHIS INTL   PTCLDY    60  50  69 CALM      29.94F
NWS MEMPHIS      N/A     53 N/A N/A MISG        N/A
JACKSON          N/A    N/A N/A N/A MISG      29.94S
DYERSBURG      CLEAR    N/A N/A N/A MISG        N/A
UNION CITY     CLEAR     52  50  93 S3        29.90F
PARIS          CLEAR     54  45  71 CALM      29.92F
HUNTINGDON     CLEAR     54  50  87 CALM      29.91F
LEXINGTON      CLEAR     48  48 100 CALM      29.93F
$$

TNZ008-025-027-028-033-062-065-066-280900-
NORTH MIDDLE TENNESSEE

CITY           SKY/WX    TMP DP  RH WIND       PRES   REMARKS
NASHVILLE      CLEAR     53  49  86 CALM      29.93F
PORTLAND       PTCLDY    54  48  82 S5        29.92F
CLARKSVILLE    CLEAR     53  48  83 S3        29.91F
SMYRNA         CLEAR     49  48  97 CALM      29.95F
COOKEVILLE     CLEAR     45  45 100 CALM      29.94F
GALLATIN       CLOUDY    50  48  93 CALM      29.95F
CROSSVILLE     CLEAR     46  43  89 CALM      29.97F
$$

TNZ061-075-076-078-094-096-097-280900-
SOUTH MIDDLE TENNESSEE

CITY           SKY/WX    TMP DP  RH WIND       PRES   REMARKS
FAYETTEVILLE   MOCLDY    52  48  87 CALM      29.95S
TULLAHOMA      CLEAR     45  41  87 CALM      29.96F
WINCHESTER     CLEAR     46  45  93 CALM      29.95F
MCMINNVILLE      N/A     46  46 100 CALM      29.95F
COLUMBIA       CLEAR    N/A N/A N/A CALM      29.93F
SHELBYVILLE    CLEAR     48  48 100 E3        29.96S
$$

TNZ017-018-042-046-047-280900-
NORTHEAST TENNESSEE

CITY           SKY/WX    TMP DP  RH WIND       PRES   REMARKS
TRI CITIES     FOG       56  55  97 CALM      29.94F VSB 1
ELIZABETHTON   MOCLDY    59  57  94 CALM      29.94S
$$

TNZ012-013-036-069-073-074-280900-
CENTRAL EAST TENNESSEE

CITY           SKY/WX    TMP DP  RH WIND       PRES   REMARKS
KNOXVILLE      CLEAR     61  53  75 SE3       29.93S
OAK RIDGE      CLEAR     53  50  89 CALM      29.96S
DOWNTOWN KNOXV CLEAR     55  54  94 CALM      29.94S
GATLINBURG     CLOUDY    61  59  94 CALM      29.94S
MORRISTOWN     CLOUDY    57  52  82 CALM      29.94R
JACKSBORO      CLEAR     50  48  93 CALM      29.98S
$$

TNZ083-085-099-280900-
SOUTHEAST TENNESSEE

CITY           SKY/WX    TMP DP  RH WIND       PRES   REMARKS
CHATTANOOGA    CLEAR     62  51  67 CALM      29.94S
$$

SKY/WX REPORTED AS FAIR MEANS FEW OR NO CLOUDS BELOW
12 THOUSAND FEET.





USA.gov is the U.S. government's official web portal to all federal, state and local government web resources and services.